Meteo pe oră la Almaty

Astăzi, 28 Ianuarie, Joi

Timp Temperatura Precipitaţii Vânt Presiune Umiditate
00:00 -6°C° 0 mm 1 m/s 695 mmHg 62%
01:00 -6°C° 0 mm 1 m/s 695 mmHg 62%
02:00 -7°C° 0 mm 1 m/s 695 mmHg 61%
03:00 -7°C° 0 mm 1 m/s 695 mmHg 60%
04:00 -7°C° 0 mm 1 m/s 695 mmHg 60%
05:00 -7°C° 0 mm 1 m/s 694 mmHg 61%
06:00 -7°C° 0 mm 1 m/s 695 mmHg 63%
07:00 -6°C° 0 mm 1 m/s 695 mmHg 64%
08:00 -6°C° 0 mm 1 m/s 695 mmHg 66%
09:00 -4°C° 0 mm 1 m/s 695 mmHg 68%
10:00 -3°C° 0 mm 1 m/s 695 mmHg 71%
11:00 -1°C° 0 mm 1 m/s 694 mmHg 73%
12:00 -1°C° 0 mm 1 m/s 694 mmHg 76%
13:00 0°C° 0 mm 1 m/s 694 mmHg 78%
14:00 0°C° 0 mm 1 m/s 694 mmHg 80%
15:00 -2°C° 0 mm 1 m/s 694 mmHg 81%
16:00 -3°C° 0 mm 1 m/s 694 mmHg 81%
17:00 -6°C° 0 mm 0 m/s 694 mmHg 82%
18:00 -6°C° 0 mm 0 m/s 694 mmHg 77%
19:00 -6°C° 0 mm 0 m/s 695 mmHg 72%
20:00 -6°C° 0 mm 1 m/s 695 mmHg 67%
21:00 -6°C° 0 mm 1 m/s 695 mmHg 66%
22:00 -6°C° 0 mm 1 m/s 695 mmHg 66%
23:00 -7°C° 0 mm 1 m/s 695 mmHg 65%

Mâine, 29 Ianuarie, Vineri

Timp Temperatura Precipitaţii Vânt Presiune Umiditate
00:00 -7°C° 0 mm 1 m/s 695 mmHg 65%
01:00 -7°C° 0 mm 1 m/s 695 mmHg 65%
02:00 -7°C° 0 mm 1 m/s 695 mmHg 65%
03:00 -7°C° 0 mm 1 m/s 695 mmHg 65%
04:00 -7°C° 0 mm 1 m/s 695 mmHg 65%
05:00 -7°C° 0 mm 1 m/s 695 mmHg 65%
06:00 -7°C° 0 mm 1 m/s 695 mmHg 64%
07:00 -7°C° 0 mm 1 m/s 695 mmHg 64%
08:00 -6°C° 0 mm 1 m/s 695 mmHg 64%
09:00 -4°C° 0 mm 1 m/s 695 mmHg 66%
10:00 -3°C° 0 mm 1 m/s 695 mmHg 68%
11:00 -1°C° 0 mm 1 m/s 694 mmHg 71%
12:00 -1°C° 0 mm 1 m/s 694 mmHg 72%
13:00 0°C° 0 mm 1 m/s 693 mmHg 74%
14:00 0°C° 0 mm 1 m/s 693 mmHg 75%
15:00 -1°C° 0 mm 1 m/s 693 mmHg 74%
16:00 -3°C° 0 mm 1 m/s 693 mmHg 74%
17:00 -4°C° 0 mm 1 m/s 693 mmHg 73%
18:00 -4°C° 0 mm 1 m/s 693 mmHg 69%
19:00 -4°C° 0 mm 1 m/s 693 mmHg 65%
20:00 -6°C° 0 mm 2 m/s 693 mmHg 61%
21:00 -6°C° 0 mm 2 m/s 693 mmHg 59%
22:00 -6°C° 0 mm 2 m/s 693 mmHg 56%
23:00 -6°C° 0 mm 2 m/s 694 mmHg 54%

Poimâine, 30 Ianuarie, Sâmbătă

Timp Temperatura Precipitaţii Vânt Presiune Umiditate
00:00 -6°C° 0 mm 2 m/s 693 mmHg 54%
01:00 -6°C° 0 mm 2 m/s 693 mmHg 53%
02:00 -6°C° 0 mm 2 m/s 693 mmHg 53%
03:00 -6°C° 0 mm 2 m/s 693 mmHg 53%
04:00 -6°C° 0 mm 2 m/s 693 mmHg 52%
05:00 -6°C° 0 mm 2 m/s 693 mmHg 52%
06:00 -6°C° 0 mm 2 m/s 693 mmHg 52%
07:00 -6°C° 0 mm 2 m/s 693 mmHg 51%
08:00 -5°C° 0 mm 2 m/s 692 mmHg 51%
09:00 -4°C° 0 mm 2 m/s 692 mmHg 57%
10:00 -2°C° 0 mm 2 m/s 692 mmHg 63%
11:00 -1°C° 0 mm 2 m/s 691 mmHg 70%
12:00 +1°C° 0 mm 2 m/s 691 mmHg 70%
13:00 +1°C° 0 mm 2 m/s 690 mmHg 71%
14:00 +2°C° 0 mm 2 m/s 690 mmHg 71%
15:00 +1°C° 0 mm 2 m/s 690 mmHg 65%
16:00 -1°C° 0 mm 3 m/s 689 mmHg 58%
17:00 -2°C° 0 mm 3 m/s 689 mmHg 51%
18:00 -2°C° 0 mm 3 m/s 689 mmHg 49%
19:00 -2°C° 0 mm 3 m/s 689 mmHg 47%
20:00 -2°C° 0 mm 3 m/s 689 mmHg 46%
21:00 -4°C° 0 mm 3 m/s 689 mmHg 46%
22:00 -4°C° 0 mm 3 m/s 689 mmHg 46%
23:00 -4°C° 0 mm 3 m/s 689 mmHg 46%

31 Ianuarie, Duminică

Timp Temperatura Precipitaţii Vânt Presiune Umiditate
00:00 -4°C° 0 mm 3 m/s 689 mmHg 45%
01:00 -3°C° 0 mm 2 m/s 688 mmHg 43%
02:00 -3°C° 0 mm 2 m/s 688 mmHg 42%
03:00 -3°C° 0 mm 2 m/s 688 mmHg 41%
04:00 -3°C° 0 mm 2 m/s 688 mmHg 40%
05:00 -3°C° 0 mm 2 m/s 687 mmHg 38%
06:00 -2°C° 0 mm 2 m/s 687 mmHg 38%
07:00 -2°C° 0 mm 2 m/s 687 mmHg 37%
08:00 -1°C° 0 mm 2 m/s 687 mmHg 37%
09:00 +2°C° 0 mm 1 m/s 687 mmHg 45%
10:00 +4°C° 0 mm 1 m/s 686 mmHg 53%
11:00 +4°C° 0 mm 0 m/s 686 mmHg 60%
12:00 +4°C° 0 mm 0 m/s 686 mmHg 63%
13:00 +5°C° 0 mm 0 m/s 685 mmHg 65%
14:00 +5°C° 0 mm 0 m/s 685 mmHg 67%
15:00 +5°C° 0 mm 1 m/s 684 mmHg 61%
16:00 +4°C° 0 mm 1 m/s 684 mmHg 54%
17:00 +3°C° 0 mm 1 m/s 684 mmHg 48%
18:00 +3°C° 0 mm 1 m/s 684 mmHg 46%
19:00 +3°C° 0 mm 1 m/s 684 mmHg 45%
20:00 +3°C° 0 mm 1 m/s 684 mmHg 43%
21:00 +3°C° 0 mm 1 m/s 684 mmHg 43%
22:00 +3°C° 0 mm 1 m/s 684 mmHg 43%
23:00 +3°C° 0 mm 1 m/s 685 mmHg 43%

1 Februarie, Luni

Timp Temperatura Precipitaţii Vânt Presiune Umiditate
00:00 +3°C° 0 mm 1 m/s 685 mmHg 45%
01:00 +2°C° 0 mm 2 m/s 686 mmHg 46%
02:00 +1°C° 0 mm 2 m/s 686 mmHg 48%
03:00 +2°C° 0 mm 2 m/s 687 mmHg 47%
04:00 +2°C° 0 mm 2 m/s 687 mmHg 46%
05:00 +3°C° 0 mm 1 m/s 688 mmHg 46%
06:00 +3°C° 0.1 mm 1 m/s 688 mmHg 48%
07:00 +4°C° 0.1 mm 1 m/s 689 mmHg 50%
08:00 +4°C° 0.1 mm 1 m/s 690 mmHg 52%
09:00 +4°C° 0.1 mm 1 m/s 690 mmHg 61%
10:00 +4°C° 0.1 mm 0 m/s 690 mmHg 70%
11:00 +4°C° 0.1 mm 0 m/s 690 mmHg 78%
12:00 +5°C° 0.2 mm 1 m/s 690 mmHg 79%
13:00 +6°C° 0.2 mm 1 m/s 691 mmHg 80%
14:00 +6°C° 0.2 mm 1 m/s 691 mmHg 81%
15:00 +5°C° 0.1 mm 1 m/s 691 mmHg 78%
16:00 +4°C° 0.1 mm 1 m/s 692 mmHg 76%
17:00 +4°C° 0.1 mm 1 m/s 692 mmHg 73%
18:00 +3°C° 0.1 mm 0 m/s 692 mmHg 74%
19:00 +3°C° 0.1 mm 0 m/s 693 mmHg 75%
20:00 +3°C° 0.1 mm 0 m/s 693 mmHg 77%
21:00 +2°C° 0 mm 0 m/s 693 mmHg 78%
22:00 +2°C° 0 mm 0 m/s 693 mmHg 78%
23:00 +2°C° 0 mm 0 m/s 694 mmHg 79%

2 Februarie, Marţi

Timp Temperatura Precipitaţii Vânt Presiune Umiditate
00:00 +2°C° 0 mm 0 m/s 694 mmHg 81%
01:00 +2°C° 0 mm 0 m/s 694 mmHg 82%
02:00 +2°C° 0 mm 1 m/s 694 mmHg 84%
03:00 +2°C° 0 mm 1 m/s 694 mmHg 85%
04:00 +2°C° 0 mm 1 m/s 694 mmHg 86%
05:00 +2°C° 0 mm 1 m/s 694 mmHg 86%
06:00 +2°C° 0.1 mm 1 m/s 695 mmHg 88%
07:00 +2°C° 0.1 mm 1 m/s 695 mmHg 90%
08:00 +2°C° 0.1 mm 1 m/s 695 mmHg 91%
09:00 +3°C° 0.1 mm 1 m/s 695 mmHg 92%
10:00 +3°C° 0.1 mm 1 m/s 695 mmHg 94%
11:00 +4°C° 0.1 mm 1 m/s 695 mmHg 95%
12:00 +4°C° 0.1 mm 1 m/s 695 mmHg 95%
13:00 +4°C° 0.1 mm 1 m/s 694 mmHg 96%
14:00 +4°C° 0.1 mm 1 m/s 694 mmHg 97%
15:00 +4°C° 0 mm 1 m/s 694 mmHg 97%
16:00 +3°C° 0 mm 1 m/s 694 mmHg 97%
17:00 +3°C° 0 mm 1 m/s 695 mmHg 97%
18:00 +2°C° 0 mm 1 m/s 695 mmHg 93%
19:00 +2°C° 0 mm 1 m/s 695 mmHg 90%
20:00 +2°C° 0 mm 1 m/s 695 mmHg 87%
21:00 +1°C° 0 mm 1 m/s 695 mmHg 85%
22:00 +1°C° 0 mm 1 m/s 695 mmHg 84%
23:00 +1°C° 0 mm 1 m/s 695 mmHg 83%
Arată mai mult

Formular de consimțământ

Meteoprog și furnizorii noștri de servicii pot stoca și accesa date personale, precum cookies, identificatori de dispozitiv sau alte tehnologii similare pe dispozitivul dumneavoastră și procesa astfel de date pentru a personaliza conținutul și reclamele, dar și pentru a oferi caracteristici de social media și pentru a analiza traficul.

  • Stocarea și/sau accesarea informațiilor pe dispozitivul dumneavoastră

    Cookies, identificatori de dispozitiv sau alte informații pot fi stocate sau accesate pe dispozitiv în scopurile indicate mai sus.

  • Reclame și conținut personalizat, evaluarea reclamelor și a conținutului, informații despre audiențe și dezvoltarea produselor

    Reclamele și conținutul pot fi personalizate pe baza unui profil. Pot fi adăugate date suplimentare pentru a personaliza mai bine reclamele și conținutul. Performanța reclamelor și conținutului poate fi măsurată. Pot fi obținute informații despre utilizatorii care au văzut reclamele și conținutul. Aceste date pot fi utilizate pentru a dezvolta sau îmbunătăți experiența utilizatorilor, sistemele și software-ul.

Dând clic pe ‘Sunt de acord’, permiteți utilizarea cookie-urilor menționate, a identificatorilor de dispozitiv, balizelor web sau altor tehnologii similare. Setările pot fi modificate din browser-ul dispozitivului dumneavoastră.

În anumite scopuri, interesele legitime pot prima asupra consimțământului. Puteți citi mai multe informații în acest sens în Politica privind Confidențialitatea Datelor și Cookie.